Theta_e
345 334 327 320 307 306 301 307 318 316 314 323 321 319 319 322 319 307 333 336 344 351 356 357 361 361 358 357 357 357 358 359 359 360 361 361 361 362 361 361 361 360 357 356 355 354 354 354 352
337 332 316 309 300 295 298 308 312 315 318 320 320 320 320 319 331 330 330 346 346 353 357 356 361 361 359 357 357 358 358 358 358 358 359 360 361 361 360 360 359 358 356 354 353 352 352 352 351
327 317 306 301 297 295 298 308 313 316 320 319 313 320 317 321 333 331 337 349 352 353 356 356 361 361 360 357 357 358 358 358 357 357 357 358 359 359 359 359 359 358 354 353 352 352 353 352 352
315 309 306 300 297 301 304 307 312 311 317 318 315 311 321 326 332 335 348 351 351 353 356 359 361 361 360 358 358 359 358 358 358 357 357 357 357 358 357 358 357 357 355 353 353 355 354 353 353
305 303 297 293 295 300 304 307 305 311 315 315 318 310 315 328 342 347 348 350 348 350 355 355 361 361 360 357 356 358 358 358 358 358 357 357 357 357 356 355 354 354 354 354 354 355 355 355 354
301 300 293 290 293 298 299 302 309 313 318 320 315 313 315 333 341 345 347 345 349 349 354 354 360 361 360 359 357 358 359 359 359 358 357 357 357 356 355 354 354 353 355 354 354 354 354 354 353
300 295 291 290 292 294 299 301 311 314 316 318 316 310 315 329 337 342 341 346 349 351 353 353 355 358 360 360 358 358 359 359 359 358 358 357 356 355 354 354 353 354 354 354 354 354 354 353 352
299 295 293 288 290 293 299 301 303 318 315 322 321 311 313 321 337 337 342 343 345 350 350 351 354 354 353 355 359 358 358 358 359 358 357 357 356 355 354 354 355 353 354 353 354 353 353 353 352
295 290 287 288 290 295 296 298 302 313 316 319 321 321 324 332 334 333 337 338 341 346 347 349 349 351 351 352 354 358 356 356 357 356 357 356 352 350 352 353 353 352 353 353 354 353 353 353 352
293 288 290 293 293 295 297 295 300 304 310 316 320 326 332 333 331 331 333 333 335 337 341 345 346 347 350 352 351 351 349 349 350 351 350 351 349 347 350 352 353 353 352 354 355 354 353 350 346
290 291 293 297 296 295 295 297 317 310 300 309 316 322 330 330 329 332 333 335 335 336 337 343 344 345 346 348 348 351 351 347 347 348 347 347 348 347 348 348 349 349 353 349 350 351 351 346 344
291 296 295 298 296 296 302 304 319 322 322 328 326 327 330 330 330 330 328 331 333 337 337 338 343 343 344 344 344 347 347 347 347 348 345 344 345 342 342 343 344 344 345 347 348 346 346 344 343
292 296 296 299 305 312 318 316 319 318 322 326 328 328 326 325 326 329 333 329 329 333 338 337 338 341 342 340 339 341 343 343 344 343 344 344 342 340 340 340 339 339 341 342 343 344 343 341 340
297 296 298 296 305 317 316 316 318 318 322 324 327 328 332 333 331 332 334 331 338 333 331 338 336 339 340 338 337 337 339 339 338 340 341 343 341 338 337 336 334 334 335 338 340 341 341 340 340
296 294 296 304 300 314 313 312 311 316 325 329 333 335 337 338 340 339 340 340 342 340 339 336 337 337 336 335 335 335 338 339 336 338 339 340 339 338 336 335 335 336 336 336 337 338 339 339 338
296 293 290 299 307 311 315 304 311 316 322 324 331 334 335 336 337 338 338 338 338 338 339 337 339 336 335 335 335 337 340 340 338 339 338 336 335 335 336 336 335 336 338 337 335 336 335 335 335
292 289 290 300 309 309 311 304 311 317 322 324 327 328 330 332 335 336 337 337 336 336 336 335 337 339 339 337 336 338 337 338 339 337 335 335 334 333 332 332 331 333 332 332 334 335 333 333 334
290 290 295 299 306 309 306 306 311 315 321 325 324 323 324 328 333 336 334 334 334 334 336 337 337 336 336 340 341 339 335 334 334 333 335 333 333 334 331 330 329 331 330 330 331 331 333 331 331
294 297 300 303 307 305 303 306 309 314 315 321 322 319 320 323 331 333 331 328 326 329 331 333 334 336 335 335 336 337 333 333 333 332 331 332 332 332 331 330 328 329 328 328 330 330 331 330 328
296 295 297 303 308 306 303 303 307 313 316 319 323 319 320 320 321 324 325 323 325 325 327 329 331 333 335 334 333 336 337 337 331 330 329 331 331 331 332 329 328 326 327 330 329 329 328 329 330
294 293 295 297 305 305 302 299 304 312 320 321 323 325 322 321 320 322 324 323 322 324 325 325 327 330 331 333 332 333 335 334 334 333 334 333 332 332 333 331 329 328 326 328 329 329 329 327 328
292 298 298 303 297 293 298 292 300 306 314 317 321 323 321 322 323 322 322 323 324 323 324 324 323 324 328 330 329 327 327 327 331 332 333 333 334 333 334 332 333 334 331 329 331 333 330 329 327
296 303 299 300 293 295 296 294 297 306 309 313 318 320 321 322 322 320 319 321 323 323 321 321 322 322 322 323 326 326 325 327 329 329 328 327 330 333 334 330 328 327 328 330 332 332 329 331 330
302 300 297 295 294 290 294 294 294 300 308 312 318 318 321 320 320 318 318 317 317 318 319 319 318 319 320 319 320 321 321 323 324 324 325 325 325 325 326 327 325 327 326 326 329 331 331 330 330
299 293 287 287 287 288 296 296 297 306 311 313 315 315 316 317 316 316 316 314 314 315 315 318 317 316 318 318 317 315 315 319 320 320 322 323 322 322 322 323 322 324 324 325 325 325 327 327 326
295 293 289 285 284 287 298 293 298 310 311 312 317 315 315 313 311 311 312 312 312 313 314 315 315 314 315 316 316 314 314 315 317 318 320 322 322 322 322 322 321 323 324 323 322 322 322 323 323
295 293 295 289 288 289 291 298 304 307 306 310 311 312 309 308 311 309 312 312 311 310 310 310 312 312 312 313 314 314 313 315 316 316 318 320 322 322 322 322 320 323 320 319 319 319 319 319 319
298 299 291 290 284 283 287 293 294 301 302 304 305 306 308 309 309 309 311 310 311 308 307 309 310 310 311 312 313 313 312 315 316 315 315 316 319 321 320 320 320 320 319 319 319 318 318 317 317
295 293 292 290 288 284 283 291 301 300 302 301 303 305 305 305 305 309 309 309 309 307 306 307 309 310 311 311 312 312 312 313 315 314 316 316 317 317 319 319 316 311 309 310 312 313 316 313 310
296 293 291 288 286 287 288 290 302 301 302 302 301 303 304 303 306 308 307 304 303 304 305 307 309 311 312 312 312 312 312 312 312 313 313 313 310 308 309 309 308 308 309 310 310 307 306 305 303
Wind_Speed
9 5 3 3 5 5 4 6 2 4 3 4 1 4 5 2 3 5 4 6 8 14 12 17 20 20 20 19 18 17 14 14 15 17 17 18 18 18 17 16 16 15 16 15 14 13 13 12 12
6 3 4 2 5 3 5 5 6 8 3 2 4 2 3 4 2 2 2 4 9 13 11 13 19 20 20 20 20 18 16 15 15 15 16 16 17 17 17 16 15 15 15 14 13 12 12 11 11
5 2 4 5 3 3 5 7 11 6 5 1 3 1 2 3 2 5 2 10 10 11 10 12 19 19 19 20 20 20 19 17 17 16 16 16 16 15 15 14 14 14 14 13 12 12 11 11 10
3 4 4 4 4 9 7 9 8 3 4 3 2 4 2 4 2 3 10 12 10 11 9 14 17 17 17 18 19 19 19 18 18 18 17 16 15 14 13 12 11 11 12 11 11 9 10 11 11
4 3 3 1 6 7 7 7 3 1 6 2 2 4 3 2 6 8 10 10 12 13 10 12 15 15 16 16 17 16 16 16 16 17 17 16 14 12 11 11 11 11 11 11 11 11 11 11 10
4 3 4 2 5 7 8 5 1 3 2 3 1 2 2 2 5 5 7 5 6 8 9 9 15 15 14 15 15 15 15 15 15 14 14 13 12 12 13 13 13 12 12 12 12 10 10 9 8
6 4 3 4 5 7 6 9 3 1 5 4 3 2 1 1 6 7 7 6 5 6 10 5 7 12 16 14 13 14 13 13 13 12 12 12 13 13 13 12 12 12 11 11 11 11 11 11 10
6 5 1 4 3 6 6 11 5 3 3 2 3 5 4 5 10 9 7 7 6 8 7 9 9 6 7 9 15 14 14 13 12 12 13 13 13 13 13 11 12 14 13 14 12 12 12 11 11
3 5 2 5 2 7 3 8 3 0 5 2 4 2 3 13 14 8 9 8 7 2 5 8 9 10 5 5 8 13 16 14 13 13 13 9 4 6 9 11 14 16 15 14 13 13 13 13 13
5 4 7 5 4 5 6 2 10 9 5 1 4 2 9 12 15 14 10 6 4 4 5 8 9 10 10 6 5 6 5 4 5 5 6 5 6 7 9 12 16 16 16 15 16 16 15 14 6
3 4 4 6 5 3 4 4 7 8 6 5 11 7 14 13 13 11 7 7 7 6 4 7 8 9 10 8 4 4 4 2 3 5 4 4 4 4 5 3 5 5 10 5 7 7 7 7 5
2 7 5 6 3 3 4 3 6 13 7 17 9 11 17 13 10 10 9 13 7 8 8 6 6 6 10 5 4 4 6 7 6 7 6 4 5 4 5 4 4 3 3 4 4 4 6 7 8
4 4 5 6 6 6 9 10 9 18 16 11 19 19 17 10 6 2 9 11 4 5 6 8 7 8 8 5 3 3 4 3 4 5 6 6 5 5 3 4 2 3 2 4 4 6 6 8 9
6 2 5 1 5 7 14 10 6 14 13 16 24 21 20 18 11 9 11 13 16 10 8 7 10 11 9 6 3 3 3 7 8 9 10 12 9 9 8 6 5 4 3 3 5 6 7 7 7
1 5 4 8 4 5 3 15 14 13 12 19 20 19 19 18 17 16 14 14 14 13 12 10 7 5 5 4 6 5 4 4 4 4 6 5 4 5 5 4 3 3 4 5 5 8 5 5 5
7 7 4 5 8 6 9 3 9 13 12 16 16 18 18 19 17 15 15 16 19 21 19 17 11 8 1 4 4 4 4 7 7 7 9 13 11 8 1 2 3 5 2 2 3 5 7 7 6
8 2 3 3 11 3 8 3 8 11 8 12 14 15 15 16 17 15 12 11 14 18 13 21 18 15 12 7 5 9 12 11 7 3 1 3 3 6 7 7 7 6 5 5 3 4 5 5 4
2 3 5 5 7 18 13 7 5 7 8 10 13 13 14 15 16 10 12 10 10 10 13 15 14 14 11 6 5 6 7 7 8 10 9 10 7 13 13 10 11 6 7 7 2 6 5 4 4
3 6 10 2 3 11 4 6 7 4 5 7 9 12 15 14 9 10 9 9 10 14 16 15 15 11 6 5 3 2 1 3 4 5 9 10 5 10 8 12 5 7 7 7 8 3 4 6 4
3 8 4 6 3 8 3 8 5 6 3 1 5 7 16 9 8 9 8 9 9 13 14 14 14 12 9 6 3 3 2 3 5 4 6 5 8 9 10 11 11 3 5 1 4 3 4 6 6
3 5 5 8 3 5 1 5 7 5 6 5 2 2 11 14 7 5 6 6 9 13 12 11 8 8 8 8 4 4 3 3 3 4 4 7 9 10 12 11 10 10 5 5 6 5 8 10 5
2 5 5 14 5 4 3 3 6 5 7 7 7 3 9 11 5 3 5 6 8 7 6 7 8 7 5 5 4 4 3 3 3 4 4 6 7 7 7 7 6 7 5 8 11 10 13 9 7
4 5 6 5 5 5 5 6 6 5 4 6 10 10 10 8 8 9 8 7 4 4 4 6 6 8 8 7 5 4 4 4 4 5 7 7 5 6 8 5 5 5 5 9 11 10 9 8 5
4 5 8 6 4 5 3 5 5 3 3 3 5 5 6 8 8 7 7 7 6 5 8 7 8 5 6 6 6 5 5 6 5 6 6 5 5 6 6 6 4 6 6 7 7 7 5 4 3
8 8 5 6 7 3 4 5 6 3 0 3 5 4 2 5 6 7 7 8 9 10 9 8 8 8 8 7 7 8 7 7 7 8 7 8 5 4 6 5 5 4 5 6 4 4 2 3 2
4 5 7 2 1 3 5 3 3 3 7 6 4 3 4 6 5 6 8 8 8 8 9 9 8 8 9 7 8 6 7 5 6 7 8 7 6 6 6 5 4 7 5 3 3 1 2 2 2
2 6 4 8 3 4 2 1 3 4 4 3 5 5 5 4 6 8 9 7 8 9 9 7 7 7 7 7 6 7 7 7 8 10 8 7 9 7 7 5 3 3 4 5 5 3 3 3 2
5 4 5 5 2 1 3 1 3 5 3 4 4 4 4 6 7 6 6 7 7 7 7 8 7 6 6 7 6 7 7 9 10 9 10 11 11 9 7 5 4 3 4 5 5 3 2 3 3
7 5 7 6 4 5 2 4 4 3 2 5 5 5 5 5 6 6 6 7 6 7 7 6 7 7 10 10 10 9 11 11 10 10 10 11 11 10 6 3 6 7 6 6 5 4 1 5 7
2 2 4 6 3 2 4 4 5 5 6 6 5 5 5 5 6 6 7 8 7 7 7 7 7 8 8 8 10 11 12 14 12 12 14 13 11 10 10 8 8 7 8 7 8 10 10 10 10
Wind_Direction
114 113 97 58 54 55 281 265 292 238 250 210 220 129 184 223 188 218 298 189 138 149 156 153 148 147 148 145 145 143 138 132 130 132 135 140 149 155 156 158 161 166 167 167 166 164 157 155 154
133 97 36 77 80 35 270 271 258 245 247 156 63 47 15 267 193 146 152 165 151 147 153 152 152 150 150 149 149 149 148 145 142 141 144 150 157 161 162 163 168 171 173 172 170 167 165 165 168
153 64 71 83 119 190 244 229 231 254 267 263 46 56 245 229 317 186 186 138 137 148 152 160 153 153 155 153 153 153 155 155 156 156 158 161 164 167 170 172 174 177 177 176 176 175 177 179 182
142 13 32 76 269 249 235 267 236 286 67 62 122 269 302 259 255 162 137 139 139 151 157 163 160 156 158 159 157 156 158 161 163 166 169 170 172 171 172 175 177 182 183 184 186 187 191 194 197
42 62 53 34 255 264 250 271 245 196 131 155 136 263 219 297 56 117 143 143 150 160 162 163 165 162 163 167 165 163 163 165 169 170 173 176 177 176 177 179 184 189 192 196 197 198 205 206 206
50 102 50 292 271 273 291 262 284 127 87 151 215 233 240 88 103 140 130 126 130 153 158 168 171 171 171 176 176 173 173 175 177 178 179 179 180 184 191 194 196 201 204 205 207 211 216 222 223
123 94 199 246 270 306 287 333 24 138 146 243 138 223 315 233 132 123 112 102 100 150 165 170 180 184 182 180 185 186 183 184 182 181 183 186 191 197 201 205 208 212 216 220 220 217 219 220 221
110 92 157 247 277 284 316 341 293 176 230 3 94 251 274 193 130 112 105 106 106 167 174 187 196 202 197 190 189 195 193 192 192 191 193 197 200 205 211 213 218 219 221 223 227 228 229 230 233
122 61 281 257 190 273 332 3 279 208 104 354 230 255 281 124 122 105 60 33 25 188 221 205 210 214 220 207 200 198 207 201 203 205 208 205 199 212 216 216 217 225 227 230 232 231 232 235 238
94 115 226 216 221 280 313 20 330 354 359 176 276 56 99 124 73 71 56 29 351 311 266 242 238 230 221 223 211 192 196 207 202 204 205 203 203 209 214 223 226 229 231 231 232 232 233 235 228
167 197 213 277 248 262 292 82 13 350 8 353 291 3 48 74 88 97 136 156 200 219 228 228 239 250 247 238 206 202 204 188 198 211 209 225 229 235 237 233 233 234 240 247 257 258 249 248 244
348 253 204 307 22 20 2 337 70 36 312 293 274 114 92 93 114 136 209 187 174 185 201 214 200 218 245 260 267 235 206 205 210 216 205 203 232 236 241 239 241 232 223 245 242 247 244 233 224
170 262 97 298 86 66 82 52 72 27 356 24 68 72 74 75 94 200 257 29 1 299 234 208 190 211 221 232 269 265 257 250 223 204 210 205 222 234 239 260 268 260 250 243 250 244 240 237 237
201 296 296 168 94 63 82 30 51 354 347 38 67 65 60 56 30 7 351 354 3 329 291 236 207 205 207 228 262 273 335 358 360 2 357 348 346 351 351 351 342 322 298 266 241 240 242 239 228
217 43 36 18 293 142 73 35 24 357 21 50 57 67 62 52 46 31 15 11 359 5 322 264 229 229 190 91 236 52 49 19 9 22 42 43 22 353 335 297 271 253 245 244 242 264 238 258 247
17 74 66 1 357 1 85 19 13 4 36 47 44 51 48 54 43 38 32 28 22 25 21 38 33 34 61 190 17 74 73 66 47 58 59 52 30 358 291 235 289 305 283 227 231 234 252 231 228
6 40 23 44 359 75 70 124 1 10 47 64 60 51 55 39 37 29 31 34 35 52 19 47 43 40 30 32 114 111 113 101 92 65 114 69 21 306 289 283 272 239 237 254 214 271 239 261 220
350 57 60 58 340 69 61 58 12 8 53 70 75 64 53 40 30 18 21 29 51 70 62 52 45 34 27 16 59 122 127 143 166 184 224 184 207 220 233 265 253 247 253 250 234 229 231 262 247
102 89 111 130 144 66 50 66 27 29 36 63 77 87 68 52 23 20 11 12 41 50 57 56 57 45 39 24 50 107 236 306 329 256 248 263 248 276 259 269 282 227 264 276 248 255 219 252 235
118 112 86 52 18 90 152 49 338 24 15 133 87 103 98 80 38 19 7 350 31 52 52 49 49 41 35 30 357 11 320 297 279 276 273 251 275 266 253 263 277 273 233 133 234 214 263 234 191
118 124 191 132 109 26 164 33 5 338 352 31 243 319 80 81 40 13 359 323 48 50 48 50 43 39 27 19 5 350 337 313 311 304 283 268 251 253 265 267 269 282 288 276 266 242 245 262 223
88 174 166 141 115 173 57 241 342 351 327 357 13 123 56 75 52 17 2 359 22 31 41 40 36 37 42 21 26 13 333 315 302 301 299 303 294 276 269 269 284 275 267 274 268 251 239 229 238
187 89 131 121 92 106 17 77 276 352 340 343 1 9 27 28 21 3 345 347 338 353 37 60 38 29 13 16 20 350 336 301 302 305 310 313 307 296 296 308 308 287 280 273 266 252 229 227 218
122 87 55 56 80 46 310 116 282 256 283 337 318 353 352 2 1 4 344 344 330 336 29 31 23 13 359 359 350 344 316 302 296 298 298 283 289 290 277 283 269 263 262 261 274 280 254 225 221
60 53 1 18 20 201 317 56 246 322 148 239 232 255 327 2 2 344 321 351 351 3 7 9 7 352 352 354 351 341 331 316 309 308 301 293 285 285 290 292 286 279 278 288 292 284 254 211 181
59 126 141 179 189 241 356 63 265 270 304 238 198 145 54 15 327 337 356 352 349 350 355 352 347 340 339 339 334 333 339 329 308 307 306 292 273 269 268 270 288 302 309 313 318 333 350 47 92
156 54 161 105 24 79 276 335 340 348 37 78 105 82 44 0 5 2 350 334 336 354 340 339 338 334 346 338 339 341 332 330 323 319 308 307 298 294 288 271 282 314 344 342 348 352 36 60 75
105 146 52 14 87 353 328 115 252 339 11 37 61 85 25 23 10 340 331 332 329 334 331 339 345 335 323 342 347 347 327 327 324 316 318 318 309 308 300 295 287 342 358 5 354 345 36 80 60
2 25 50 106 110 156 184 261 359 320 40 65 52 53 35 12 346 317 315 323 327 330 332 318 345 347 351 348 343 342 337 327 318 320 320 318 318 313 334 333 25 31 39 22 25 359 334 96 91
39 110 111 112 225 68 134 257 349 75 84 83 51 19 351 327 304 316 315 308 326 299 307 2 347 357 352 349 352 356 347 339 332 328 349 355 20 21 33 55 59 41 27 20 65 67 61 58 62